Location: Alfortville
(48.8058°N, 2.4204°E)
Time: 10:42:48
(UTC+00:00)

Meteor 1-18 Rocket - Visible Passes

Search period start: 17 August 2022 00:00
Search period end: 27 August 2022 00:00
Orbit: 837 x 908 km, 81.2° (Epoch: 16 August)

Date Brightness Start Highest point End Pass type
(mag) Time Alt. Az. Time Alt. Az. Time Alt. Az.
17 Aug 4.2 21:09:27 10° N 21:15:22 77° ENE 21:18:10 32° SSE visible
17 Aug 6.3 22:54:11 10° NW 22:58:02 18° W 23:00:39 14° WSW visible
18 Aug 4.2 21:04:04 10° N 21:09:58 80° ENE 21:12:56 30° SSE visible
18 Aug 6.4 22:48:53 10° NW 22:52:35 18° W 22:55:26 13° WSW visible
19 Aug 4.2 20:58:40 10° N 21:04:33 83° ENE 21:07:45 28° SSE visible
19 Aug 6.5 22:43:35 10° NW 22:47:09 17° W 22:50:14 11° WSW visible
20 Aug 4.2 20:53:16 10° N 20:59:09 86° ENE 21:02:34 26° SSE visible
20 Aug 6.6 22:38:19 10° NW 22:41:42 16° W 22:45:03 10° WSW visible
21 Aug 4.2 20:47:52 10° NNW 20:53:45 89° E 20:57:24 24° S visible
21 Aug 6.6 22:33:03 10° NW 22:36:15 15° W 22:39:26 10° WSW visible
22 Aug 4.3 20:42:28 10° NNW 20:48:20 88° W 20:52:17 21° S visible
22 Aug 6.7 22:27:47 10° NW 22:30:48 15° W 22:33:48 10° WSW visible
23 Aug 4.3 20:37:05 10° NNW 20:42:56 85° W 20:47:11 19° S visible
23 Aug 6.7 22:22:33 10° NW 22:25:22 14° W 22:28:09 10° WSW visible
24 Aug 4.3 20:31:41 10° NNW 20:37:31 81° W 20:42:07 16° S visible
24 Aug 6.7 22:17:19 10° NW 22:19:55 13° W 22:22:29 10° WSW visible
25 Aug 4.4 20:26:18 10° NNW 20:32:07 78° W 20:37:05 14° S visible
25 Aug 6.8 22:12:07 10° NW 22:14:27 13° W 22:16:47 10° WSW visible
26 Aug 4.4 20:20:54 10° NNW 20:26:42 75° W 20:32:06 11° S visible
26 Aug 6.8 22:06:57 10° WNW 22:09:01 12° WNW 22:11:03 10° W visible
